Weather History for KIAB - March, 2013

Change the Weather History Date:

Friday, March 29, 2013

  Actual Average Record
Temperature  
Mean Temperature 59 °F -  
Max Temperature 72 °F 62 °F 81 °F (2012)
Min Temperature 47 °F 40 °F 24 °F (2009)
Degree Days  
Heating Degree Days 6    
Growing Degree Days 9 (Base 50)    
Moisture  
Dew Point 55 °F    
Average Humidity 78    
Maximum Humidity 100    
Minimum Humidity 53    
Precipitation  
Precipitation 0.00 in - - ()
Sea Level Pressure  
Sea Level Pressure 30.09 in    
Wind  
Wind Speed 8 mph (East)    
Max Wind Speed 14 mph    
Max Gust Speed 21 mph    
Visibility 10 miles    
Events Rain    
Averages and records for this station are not official NWS values.
T = Trace of Precipitation, MM = Missing Value Source: NWS Daily Summary

Daily Weather History Graph

Daily Weather History Graph

Search for Another Location

Airport or City:

Trip Planner

Search our weather history database for the weather conditions in past years. The results will help you decide how hot, cold, wet, or windy it might be!

Date:

Astronomy

Mar. 29, 2013 Rise Set
Actual Time 7:18 AM CDT 7:49 PM CDT
Civil Twilight 6:52 AM CDT 8:15 PM CDT
Nautical Twilight 6:21 AM CDT 8:46 PM CDT
Astronomical Twilight 5:49 AM CDT 9:18 PM CDT
Moon 10:46 PM CDT (3/29) 8:31 AM CDT (3/29)
Length of Visible Light 13h 23m
Length of Day
12h 30m
Waning Gibbous, 93% of the Moon is Illuminated
Mar 29
Waning Gibbous
Apr 2
Last Quarter
Apr 10
New
Apr 18
First Quarter
Apr 25
Full

Hourly Weather History & Observations

Time (CDT) Temp. Dew Point Humidity Pressure Visibility Wind Dir Wind Speed Gust Speed Precip Events Conditions
12:55 AM 56.3 °F 51.1 °F 83% 30.10 in 10.0 mi East 6.9 mph - N/A   Mostly Cloudy
1:55 AM 52.9 °F 52.9 °F 100% 30.10 in 10.0 mi SSE 5.8 mph - N/A   Scattered Clouds
2:55 AM 51.6 °F 51.6 °F 100% 30.10 in 10.0 mi NE 3.5 mph - N/A   Scattered Clouds
3:55 AM 51.4 °F 51.4 °F 100% 30.10 in 10.0 mi NE 4.6 mph - N/A   Overcast
4:55 AM 50.5 °F 50.4 °F 99% 30.10 in 10.0 mi ENE 4.6 mph - N/A   Clear
5:55 AM 47.5 °F 47.5 °F 100% 30.11 in 10.0 mi Calm Calm - N/A   Clear
6:55 AM 49.8 °F 49.8 °F 100% 30.11 in 10.0 mi NE 4.6 mph - N/A   Partly Cloudy
7:55 AM 49.6 °F 49.6 °F 100% 30.14 in 10.0 mi NE 3.5 mph - N/A   Scattered Clouds
8:58 AM 52.7 °F 52.7 °F 100% 30.14 in 10.0 mi East 8.1 mph - N/A   Clear
9:58 AM 58.5 °F 57.7 °F 97% 30.15 in 10.0 mi East 8.1 mph - N/A   Clear
10:58 AM 64.0 °F 58.3 °F 82% 30.14 in 10.0 mi ENE 8.1 mph - N/A   Clear
11:58 AM 67.1 °F 58.5 °F 74% 30.13 in 10.0 mi NE 8.1 mph - N/A   Clear
12:58 PM 68.7 °F 57.0 °F 66% 30.11 in 10.0 mi ENE 11.5 mph - N/A   Scattered Clouds
1:18 PM 69.8 °F 57.2 °F 64% 30.11 in 10.0 mi ESE 13.8 mph - N/A Rain Light Rain
1:19 PM 69.8 °F 57.2 °F 64% 30.11 in 10.0 mi ESE 12.7 mph - N/A   Scattered Clouds
1:56 PM 69.8 °F 55.4 °F 60% 30.10 in 10.0 mi ESE 11.5 mph 20.7 mph N/A Rain Light Rain
1:58 PM 69.8 °F 55.4 °F 60% 30.10 in 10.0 mi ESE 8.1 mph 20.7 mph 0.00 in Rain Light Rain
2:05 PM 69.8 °F 55.4 °F 60% 30.10 in 10.0 mi ESE 10.4 mph 20.7 mph N/A   Partly Cloudy
2:13 PM 69.8 °F 57.2 °F 64% 30.09 in 10.0 mi East 10.4 mph - N/A   Light Drizzle
2:20 PM 69.8 °F 57.2 °F 64% 30.09 in 10.0 mi East 9.2 mph - N/A   Scattered Clouds
2:58 PM 71.2 °F 55.2 °F 57% 30.08 in 10.0 mi ESE 12.7 mph - 0.00 in   Mostly Cloudy
3:55 PM 71.1 °F 54.7 °F 56% 30.06 in 10.0 mi SSE 12.7 mph - N/A   Partly Cloudy
3:56 PM 71.6 °F 55.4 °F 57% 30.06 in 10.0 mi SE 11.5 mph - N/A   Partly Cloudy
4:58 PM 71.4 °F 53.6 °F 53% 30.06 in 10.0 mi SE 11.5 mph - N/A   Partly Cloudy
5:58 PM 70.3 °F 53.1 °F 54% 30.05 in 10.0 mi ESE 11.5 mph - N/A   Clear
6:58 PM 68.5 °F 54.9 °F 62% 30.05 in 10.0 mi ESE 11.5 mph - N/A   Scattered Clouds
7:58 PM 64.8 °F 56.5 °F 74% 30.05 in 10.0 mi East 10.4 mph - N/A   Clear
8:58 PM 61.5 °F 57.2 °F 86% 30.05 in 10.0 mi East 11.5 mph - N/A   Clear
9:58 PM 59.4 °F 57.6 °F 94% 30.07 in 10.0 mi ESE 10.4 mph - N/A   Clear
10:58 PM 58.3 °F 58.3 °F 100% 30.05 in 10.0 mi ESE 10.4 mph - N/A   Clear
11:58 PM 56.7 °F 56.7 °F 100% 30.02 in 10.0 mi East 10.4 mph - N/A   Clear